Погода в По

Франция     43°18′16″N   0°22′08″E
темп.,
°C
ветер,
м/с
пор.,
м/с
влажн.,
%
обл.,
%
осадки,
мм/ч
давл.,
гПа
погр.,
м
27 ноября, сб
сб2701:00+7зюз61390100 2.1 10021183
04:00+7з41095100 3.2 999794
07:00+6з71397100 12.1 9991213
10:00+4зюз5992100 4.6 1004717
13:00+5зсз598585 6.6 1004913
16:00+5зсз51185100 2.4 10041203
19:00+4з4989100 5.3 1007577
22:00+4з4992100 1.6 1008740
28 ноября, вс
вс2801:00+4з599389 2.6 1009620
04:00+3зюз479697 1.1 1010398
07:00+3з61297100 3.0 1011882
10:00+4з4880100 1.3 1012786
13:00+4сз3681100 2.3 1012835
16:00+4з4784100 1.4 1011789
19:00+3юз4791100 1.8 1012317
22:00+2юз4596100 0.4 1013279
29 ноября, пн
пн2901:00+2зюз3499100 2.0 1014271
04:00+2юз4598100 1.1 1015218
07:00+2юз259184 1.3 1017127
10:00+4ююз248181 0.0 1020157
13:00+7з3461100 0.0 1019862
16:00+7з2367100 0.0 1019380
19:00+4ююз117499 0.0 102120
22:00+3ююв1178100 0.0 102213
30 ноября, вт
вт3001:00+5ююв1178100 0.0 102213
04:00+4ююв228751 0.0 102315
07:00+4ю118596 0.0 102411
10:00+8ююз1276100 0.0 102582
13:00+11з357229 0.0 1025668
16:00+10зюз368566 0.2 1025509
19:00+6ююз239279 0.2 102694
22:00+7ю228098 0.0 102533
1 декабря, ср
ср101:00+7ю227432 0.0 102449
04:00+4ю22775 0.0 102220
07:00+4ю227191 0.0 102014
10:00+7ю246795 0.0 101897
13:00+12юз3958100 0.0 1014503
16:00+10з2771100 0.1 1012254
19:00+8юз41085100 2.6 1013563
22:00+7зюз41084100 0.3 1013433